This is the latest recevied weather packets stored in our database for station/object GW4003. If no packets are shown the sender has not sent any weather packets the latest 10 day(s).
| Time | Temp. | Humidity | Pressure | Rain* | Wind** | Luminosity | Snow |
|---|---|---|---|---|---|---|---|
| 1777510023 | 11.67° C | 58% | 1019.7 hPa | 0 mm | - | - | - |
| 1777509719 | 11.67° C | 54% | 1019.6 hPa | 0 mm | - | - | - |
| 1777509415 | 12.22° C | 50% | 1019.5 hPa | 0 mm | - | - | - |
| 1777509112 | 12.22° C | 47% | 1019.3 hPa | 0 mm | - | - | - |
| 1777508808 | 12.22° C | 48% | 1019.2 hPa | 0 mm | - | - | - |
| 1777508505 | 12.22° C | 50% | 1019.2 hPa | 0 mm | - | - | - |
| 1777508201 | 12.22° C | 54% | 1019.2 hPa | 0 mm | - | - | - |
| 1777507898 | 12.78° C | 54% | 1019.1 hPa | 0 mm | - | - | - |
| 1777507594 | 12.78° C | 54% | 1019.1 hPa | 0 mm | - | - | - |
| 1777507291 | 12.78° C | 52% | 1019 hPa | 0 mm | - | - | - |
| 1777506988 | 12.78° C | 46% | 1019.1 hPa | 0 mm | - | - | - |
| 1777506684 | 12.78° C | 47% | 1018.9 hPa | 0 mm | - | - | - |
| 1777506380 | 12.78° C | 47% | 1019 hPa | 0 mm | - | - | - |
| 1777506076 | 12.78° C | 48% | 1018.9 hPa | 0 mm | - | - | - |
| 1777505772 | 12.78° C | 49% | 1019 hPa | 0 mm | - | - | - |
| 1777505468 | 12.78° C | 49% | 1018.9 hPa | 0 mm | - | - | - |
| 1777505165 | 12.78° C | 49% | 1018.9 hPa | 0 mm | - | - | - |
| 1777504862 | 12.78° C | 47% | 1018.9 hPa | 0 mm | - | - | - |
| 1777504558 | 12.78° C | 44% | 1018.8 hPa | 0 mm | - | - | - |
| 1777504255 | 12.78° C | 45% | 1018.7 hPa | 0 mm | - | - | - |
| 1777503951 | 12.78° C | 45% | 1018.9 hPa | 0 mm | - | - | - |
| 1777503651 | 12.78° C | 46% | 1018.8 hPa | 0 mm | - | - | - |
| 1777503348 | 12.78° C | 47% | 1018.6 hPa | 0 mm | - | - | - |
| 1777503044 | 12.78° C | 47% | 1018.5 hPa | 0 mm | - | - | - |
| 1777502741 | 12.22° C | 48% | 1018.6 hPa | 0 mm | - | - | - |
* Rain latest hour (hover to see other rain measurements)
** Current wind speed in m/s (hover to see current wind gust speed)